| time (UTC) | temp C | wind direction | speed KPH | gust KPH | rain 1hr cm | rain 24hr cm | rain mn cm | humidity % | barometer mb |
| 20260503031539 | 6 | 214 | 0.0 | 0.0 | 0.00 | 0.03 | 0.03 | 94 | 1018.3 |
| 20260503030135 | 6 | 214 | 0.0 | 0.0 | 0.00 | 0.03 | 0.03 | 94 | 1018.2 |
| 20260503024558 | 6 | 214 | 0.0 | 0.0 | 0.00 | 0.03 | 0.03 | 94 | 1018.0 |
| 20260503023052 | 7 | 214 | 0.0 | 0.0 | 0.00 | 0.03 | 0.03 | 94 | 1017.8 |
| 20260503021553 | 7 | 214 | 0.0 | 0.0 | 0.00 | 0.03 | 0.03 | 94 | 1017.6 |
| 20260503020148 | 7 | 214 | 0.0 | 0.0 | 0.00 | 0.03 | 0.03 | 94 | 1017.6 |
| 20260503014600 | 8 | 214 | 0.0 | 0.0 | 0.00 | 0.03 | 0.03 | 93 | 1017.4 |
| 20260503013045 | 8 | 214 | 0.0 | 0.0 | 0.00 | 0.03 | 0.03 | 93 | 1017.2 |
| 20260503011551 | 8 | 214 | 0.0 | 0.0 | 0.00 | 0.03 | 0.03 | 92 | 1017.0 |
| 20260503010139 | 9 | 214 | 0.0 | 0.0 | 0.00 | 0.03 | 0.03 | 91 | 1016.9 |
| 20260503004538 | 10 | 214 | 0.0 | 0.0 | 0.00 | 0.03 | 0.03 | 90 | 1016.8 |
| 20260503003038 | 10 | 214 | 0.0 | 0.0 | 0.00 | 0.03 | 0.03 | 89 | 1016.6 |
| 20260503001533 | 11 | 214 | 0.0 | 0.0 | 0.00 | 0.03 | 0.03 | 86 | 1016.4 |
| 20260503000132 | 11 | 214 | 0.0 | 0.0 | 0.00 | 0.03 | 0.03 | 83 | 1016.1 |
| 20260502234607 | 12 | 214 | 0.0 | 0.0 | 0.00 | 0.03 | 0.03 | 78 | 1015.8 |
| 20260502233045 | 12 | 214 | 0.0 | 0.0 | 0.00 | 0.03 | 0.03 | 74 | 1015.6 |
| 20260502231544 | 13 | 214 | 0.0 | 0.0 | 0.00 | 0.03 | 0.03 | 70 | 1015.5 |
| 20260502230144 | 13 | 214 | 0.0 | 1.6 | 0.00 | 0.03 | 0.03 | 66 | 1015.4 |
| 20260502224536 | 13 | 114 | 0.0 | 0.0 | 0.00 | 0.03 | 0.03 | 67 | 1015.4 |
| 20260502223036 | 14 | 88 | 0.0 | 1.6 | 0.00 | 0.03 | 0.03 | 67 | 1015.3 |
| 20260502221536 | 14 | 299 | 0.0 | 0.0 | 0.00 | 0.03 | 0.03 | 67 | 1015.2 |
| 20260502220136 | 13 | 1 | 0.0 | 1.6 | 0.00 | 0.03 | 0.03 | 66 | 1015.2 |
| 20260502214553 | 13 | 1 | 0.0 | 1.6 | 0.00 | 0.03 | 0.03 | 67 | 1015.1 |
| 20260502213152 | 14 | 37 | 0.0 | 4.8 | 0.00 | 0.03 | 0.03 | 66 | 1015.0 |
| 20260502211551 | 14 | 343 | 0.0 | 1.6 | 0.00 | 0.03 | 0.03 | 66 | 1015.0 |
| 20260502210149 | 15 | 32 | 0.0 | 4.8 | 0.00 | 0.03 | 0.03 | 67 | 1015.2 |
| 20260502204540 | 15 | 281 | 0.0 | 3.2 | 0.00 | 0.03 | 0.03 | 68 | 1015.1 |
| 20260502203046 | 15 | 188 | 0.0 | 4.8 | 0.00 | 0.03 | 0.03 | 68 | 1015.0 |
| 20260502201541 | 15 | 116 | 0.0 | 1.6 | 0.00 | 0.03 | 0.03 | 74 | 1015.1 |
| 20260502200139 | 15 | 71 | 0.0 | 3.2 | 0.00 | 0.03 | 0.03 | 74 | 1015.1 |
| 20260502194536 | 15 | 207 | 0.0 | 3.2 | 0.00 | 0.03 | 0.03 | 72 | 1015.2 |
| 20260502193046 | 15 | 248 | 0.0 | 3.2 | 0.00 | 0.03 | 0.03 | 68 | 1015.3 |
| 20260502191537 | 16 | 113 | 0.0 | 3.2 | 0.00 | 0.03 | 0.03 | 67 | 1015.4 |
| 20260502190133 | 15 | 126 | 0.0 | 3.2 | 0.00 | 0.03 | 0.03 | 74 | 1015.5 |
| 20260502184552 | 15 | 91 | 0.0 | 4.8 | 0.00 | 0.03 | 0.03 | 72 | 1015.6 |
| 20260502183043 | 15 | 194 | 0.0 | 9.7 | 0.00 | 0.03 | 0.03 | 72 | 1015.7 |
| 20260502181544 | 15 | 294 | 0.0 | 1.6 | 0.00 | 0.03 | 0.03 | 71 | 1015.8 |
| 20260502180139 | 15 | 136 | 0.0 | 4.8 | 0.00 | 0.03 | 0.03 | 74 | 1016.1 |
| 20260502170152 | 14 | 257 | 0.0 | 4.8 | 0.00 | 0.03 | 0.03 | 75 | 1016.3 |
| 20260502163055 | 15 | 111 | 0.0 | 4.8 | 0.00 | 0.03 | 0.03 | 81 | 1016.8 |
| 20260502161544 | 13 | 265 | 0.0 | 1.6 | 0.00 | 0.03 | 0.03 | 81 | 1017.4 |
| 20260502160145 | 13 | 295 | 0.0 | 1.6 | 0.00 | 0.03 | 0.03 | 81 | 1017.5 |
| 20260502151547 | 13 | 54 | 0.0 | 3.2 | 0.00 | 0.03 | 0.03 | 82 | 1017.0 |
| 20260502150135 | 13 | 114 | 0.0 | 4.8 | 0.00 | 0.03 | 0.03 | 81 | 1017.3 |
| 20260502130139 | 11 | 231 | 0.0 | 1.6 | 0.00 | 0.03 | 0.03 | 82 | 1016.5 |
| 20260502123053 | 11 | 175 | 0.0 | 0.0 | 0.03 | 0.03 | 0.03 | 86 | 1016.6 |
| 20260502121551 | 11 | 236 | 0.0 | 0.0 | 0.03 | 0.03 | 0.03 | 88 | 1016.3 |
| 20260502120150 | 11 | 240 | 0.0 | 0.0 | 0.03 | 0.03 | 0.03 | 89 | 1016.2 |
| 20260502114544 | 11 | 240 | 0.0 | 0.0 | 0.03 | 0.03 | 0.03 | 89 | 1016.5 |
| 20260502113046 | 11 | 240 | 0.0 | 0.0 | 0.00 | 0.00 | 0.00 | 88 | 1016.3 |
| 20260502111543 | 11 | 242 | 0.0 | 3.2 | 0.00 | 0.00 | 0.00 | 88 | 1016.3 |
| 20260502110143 | 11 | 150 | 0.0 | 1.6 | 0.00 | 0.00 | 0.00 | 89 | 1016.4 |
| 20260502104542 | 11 | 219 | 0.0 | 0.0 | 0.00 | 0.00 | 0.00 | 88 | 1016.3 |
| 20260502103038 | 11 | 229 | 0.0 | 0.0 | 0.00 | 0.00 | 0.00 | 87 | 1016.5 |
| 20260502101541 | 11 | 300 | 0.0 | 1.6 | 0.00 | 0.00 | 0.00 | 88 | 1016.5 |
| 20260502100133 | 11 | 141 | 0.0 | 0.0 | 0.00 | 0.00 | 0.00 | 90 | 1016.6 |
| 20260502090145 | 11 | 13 | 0.0 | 0.0 | 0.00 | 0.00 | 0.00 | 93 | 1016.6 |
| 20260502070150 | 10 | 131 | 0.0 | 0.0 | 0.00 | 0.00 | 0.00 | 94 | 1015.3 |
| 20260502064549 | 10 | 131 | 0.0 | 0.0 | 0.00 | 0.00 | 0.00 | 94 | 1015.3 |
| 20260502063045 | 10 | 130 | 0.0 | 0.0 | 0.00 | 0.00 | 0.00 | 94 | 1015.6 |
| 20260502061544 | 10 | 131 | 0.0 | 0.0 | 0.00 | 0.00 | 0.00 | 94 | 1015.7 |
| 20260502060143 | 10 | 131 | 0.0 | 0.0 | 0.00 | 0.00 | 0.00 | 94 | 1015.8 |
| 20260502054559 | 10 | 130 | 0.0 | 0.0 | 0.00 | 0.00 | 0.00 | 94 | 1015.8 |
| 20260502053044 | 10 | 131 | 0.0 | 0.0 | 0.00 | 0.00 | 0.00 | 94 | 1016.1 |
| 20260502051540 | 10 | 131 | 0.0 | 0.0 | 0.00 | 0.00 | 0.00 | 94 | 1016.2 |
| 20260502050137 | 10 | 131 | 0.0 | 0.0 | 0.00 | 0.00 | 0.00 | 94 | 1016.3 |
| 20260502044551 | 10 | 131 | 0.0 | 0.0 | 0.00 | 0.00 | 0.00 | 94 | 1016.4 |
| 20260502043108 | 10 | 131 | 0.0 | 0.0 | 0.00 | 0.00 | 0.00 | 93 | 1016.4 |
| 20260502041611 | 10 | 131 | 0.0 | 0.0 | 0.00 | 0.00 | 0.00 | 93 | 1016.5 |
| 20260502040146 | 10 | 131 | 0.0 | 0.0 | 0.00 | 0.00 | 0.00 | 93 | 1016.6 |
| 20260502034545 | 10 | 130 | 0.0 | 0.0 | 0.00 | 0.00 | 0.00 | 93 | 1016.8 |
| 20260502033040 | 11 | 131 | 0.0 | 0.0 | 0.00 | 0.00 | 0.00 | 93 | 1016.7 |